Location: Le Moustier
(44.1000°N, 6.5167°E)
Time: 02:30:21
(UTC+00:00)

S3M - Pass Details

Date: 13 December 2025
Orbit: 947 x 1004 km, 83.0° (Epoch: 12 January)

Event Time Altitude Azimuth Distance (km) Brightness Sun altitude
Rises 18:51:01 0° 190° (S) 3,712 7.2 -30.5°
Reaches altitude 10° 18:53:33 10° 191° (SSW) 2,762 6.5 -30.9°
Enters shadow 18:59:20 72° 227° (SW) 1,043 4.1 -32.0°
